This is the latest recevied weather packets stored in our database for station/object CA2RRL-10. If no packets are shown the sender has not sent any weather packets the latest 10 day(s).
| Time | Temp. | Humidity | Pressure | Rain* | Wind** | Luminosity | Snow |
|---|---|---|---|---|---|---|---|
| 1777861113 | 16.67° C | 26% | 1032.2 hPa | - | - | - | - |
| 1777860213 | 17.22° C | 25% | 1032 hPa | - | - | - | - |
| 1777859313 | 17.22° C | 25% | 1031.9 hPa | - | - | - | - |
| 1777858413 | 17.78° C | 25% | 1032 hPa | - | - | - | - |
| 1777857513 | 18.33° C | 23% | 1032 hPa | - | - | - | - |
| 1777856612 | 18.33° C | 23% | 1031.9 hPa | - | - | - | - |
| 1777855712 | 18.89° C | 22% | 1031.9 hPa | - | - | - | - |
| 1777854812 | 19.44° C | 21% | 1031.8 hPa | - | - | - | - |
| 1777853912 | 20° C | 21% | 1031.7 hPa | - | - | - | - |
| 1777853012 | 20° C | 19% | 1031.6 hPa | - | - | - | - |
| 1777852112 | 20.56° C | 19% | 1031.4 hPa | - | - | - | - |
| 1777851212 | 21.11° C | 19% | 1031.2 hPa | - | - | - | - |
| 1777850312 | 22.22° C | 20% | 1031.1 hPa | - | - | - | - |
| 1777849412 | 22.22° C | 21% | 1030.9 hPa | - | - | - | - |
| 1777848512 | 22.78° C | 21% | 1030.8 hPa | - | - | - | - |
| 1777847612 | 23.33° C | 20% | 1030.7 hPa | - | - | - | - |
| 1777846711 | 23.89° C | 20% | 1030.5 hPa | - | - | - | - |
| 1777845811 | 24.44° C | 19% | 1030.5 hPa | - | - | - | - |
| 1777844911 | 23.89° C | 19% | 1030.3 hPa | - | - | - | - |
| 1777844011 | 25° C | 18% | 1030.2 hPa | - | - | - | - |
| 1777843111 | 26.11° C | 17% | 1029.9 hPa | - | - | - | - |
| 1777842211 | 27.22° C | 17% | 1029.6 hPa | - | - | - | - |
| 1777841311 | 27.22° C | 18% | 1029.7 hPa | - | - | - | - |
| 1777840411 | 27.22° C | 18% | 1029.6 hPa | - | - | - | - |
| 1777839511 | 27.78° C | 15% | 1029.6 hPa | - | - | - | - |
* Rain since midnight (hover to see other rain measurements)
** Current wind speed in m/s (hover to see current wind gust speed)